Location: Sternwarte_Laufen
(47.9344°N, 12.9346°E)
Time: 03:00:40
(UTC+02:00)

ISS - Pass Details

Date: 06 July 2025
Orbit: 413 x 417 km, 51.6° (Epoch: 12 July)

Event Time Altitude Azimuth Distance (km) Brightness Sun altitude
Rises 22:48:22 0° 214° (SW) 2,340 -0.2 -12.4°
Reaches altitude 10° 22:50:37 10° 202° (SSW) 1,482 -1.3 -12.6°
Maximum altitude 22:53:30 27° 143° (SE) 825 -2.9 -12.8°
Drops below altitude 10° 22:56:24 10° 82° (E) 1,492 -1.2 -13.1°
Sets 22:58:41 0° 70° (ENE) 2,359 -0.1 -13.3°
